TimeEST,TemperatureF,Dew PointF,Humidity,Sea Level PressureIn,VisibilityMPH,Wind Direction,Wind SpeedMPH,Gust SpeedMPH,PrecipitationIn,Events,Conditions,WindDirDegrees,DateUTC
12:56 AM,17.1,1.9,52,29.92,10.0,WNW,20.7,38.0,N/A,,Clear,300,2013-02-18 05:56:00
1:56 AM,18.0,1.9,50,29.94,10.0,NW,23.0,36.8,N/A,,Clear,310,2013-02-18 06:56:00
2:56 AM,18.0,3.0,52,29.96,10.0,WNW,21.9,32.2,N/A,,Clear,300,2013-02-18 07:56:00
3:56 AM,18.0,3.0,52,29.99,10.0,WNW,24.2,34.5,N/A,,Clear,300,2013-02-18 08:56:00
4:56 AM,17.1,3.0,54,30.02,10.0,WNW,16.1,29.9,N/A,,Clear,300,2013-02-18 09:56:00
6:56 AM,17.1,3.0,54,30.09,10.0,NW,18.4,28.8,N/A,,Partly Cloudy,310,2013-02-18 11:56:00
7:56 AM,19.0,3.9,52,30.12,10.0,NW,23.0,28.8,N/A,,Clear,310,2013-02-18 12:56:00
8:56 AM,21.0,5.0,50,30.14,10.0,NW,17.3,29.9,N/A,,Clear,310,2013-02-18 13:56:00
9:56 AM,21.9,6.1,51,30.17,10.0,WNW,17.3,27.6,N/A,,Clear,290,2013-02-18 14:56:00
10:56 AM,24.1,6.1,46,30.19,10.0,WNW,18.4,24.2,N/A,,Clear,290,2013-02-18 15:56:00
11:56 AM,27.0,8.1,45,30.18,10.0,WNW,19.6,25.3,N/A,,Clear,290,2013-02-18 16:56:00
12:56 PM,28.0,7.0,41,30.17,10.0,WNW,18.4,24.2,N/A,,Clear,300,2013-02-18 17:56:00
1:56 PM,48.2,8.6,20,30.38,10.0,Calm,Calm,-,N/A,,Clear,0,2013-02-18 18:56:00
2:56 PM,30.9,8.1,38,30.15,10.0,WNW,16.1,20.7,N/A,,Clear,290,2013-02-18 19:56:00
3:56 PM,32.0,8.1,37,30.15,10.0,West,16.1,-,N/A,,Clear,280,2013-02-18 20:56:00
4:56 PM,32.0,7.0,35,30.17,10.0,West,13.8,-,N/A,,Partly Cloudy,280,2013-02-18 21:56:00
6:56 PM,28.9,7.0,40,30.19,10.0,WSW,4.6,-,N/A,,Partly Cloudy,250,2013-02-18 23:56:00
7:56 PM,28.0,7.0,41,30.20,10.0,WSW,5.8,-,N/A,,Partly Cloudy,240,2013-02-19 00:56:00
8:56 PM,27.0,8.1,45,30.20,10.0,SW,6.9,-,N/A,,Partly Cloudy,230,2013-02-19 01:56:00
9:56 PM,28.0,10.0,47,30.20,10.0,WSW,4.6,-,N/A,,Scattered Clouds,250,2013-02-19 02:56:00
10:56 PM,27.0,12.0,53,30.22,10.0,WSW,6.9,-,N/A,,Mostly Cloudy,250,2013-02-19 03:56:00
11:56 PM,28.9,14.0,54,30.22,10.0,WSW,9.2,-,N/A,,Mostly Cloudy,250,2013-02-19 04:56:00